Погода в Тайцах

Россия / Санкт-Петербург и Ленинградская область     59°39′52″N   30°07′26″E
темп.,
°C
ветер,
м/с
пор.,
м/с
влажн.,
%
обл.,
%
осадки,
мм/ч
давл.,
гПа
погр.,
м
7 марта, вс
вс700:000зюз61397100 3.6 990831
03:00−2з51282100 6.3 989672
06:00−6з7138077 0.1 988949
09:00−8з4117564 0.5 989734
12:00−7сз698494 0.1 990884
15:00−5сз687397 0.3 9911000
18:00−7зсз6117558 0.0 993486
21:00−8сз6128278 0.0 995560
8 марта, пн
пн800:00−8с61188100 0.1 997740
03:00−10с61289100 0.1 1001795
06:00−10с61189100 0.2 1004745
09:00−12с5990100 0.3 1007611
12:00−11с5785100 0.1 1010594
15:00−9с478099 0.1 1013645
18:00−11с358695 0.0 1014325
21:00−14с249588 0.0 1016120
9 марта, вт
вт900:00−15ссз239720 0.0 101767
03:00−16ссз129959 0.1 101844
06:00−17св1199100 0.0 101920
09:00−17вюв2395100 0.1 1020115
12:00−14в238285 0.0 1021367
15:00−13в347492 0.0 1021410
18:00−14в4785100 0.0 1020282
21:00−18в489391 0.0 1022204
10 марта, ср
ср1000:00−19в48929 0.0 1023195
03:00−19в37935 0.0 1024169
06:00−20в37910 0.0 1024169
09:00−18в36850 0.0 1025172
12:00−13в357659 0.0 1026265
15:00−10в367080 0.0 1026466
18:00−12в368295 0.0 1025214
21:00−15вюв369175 0.0 1025129
11 марта, чт
чт1100:00−16вюв35921 0.0 1024119
03:00−16юв36890 0.0 1022126
06:00−17юв48860 0.0 1020182
09:00−16юв49850 0.0 1018299
12:00−11юв598435 0.0 1015456
15:00−8юв6108465 0.0 1012549
18:00−7ююв6128999 0.0 1007580
21:00−4ююв81591100 0.1 1002800